TimeEDT,TemperatureF,Dew PointF,Humidity,Sea Level PressureIn,VisibilityMPH,Wind Direction,Wind SpeedMPH,Gust SpeedMPH,PrecipitationIn,Events,Conditions,WindDirDegrees,DateUTC
12:53 AM,82.9,75.0,77,29.96,10.0,SSE,4.6,-,N/A,,Partly Cloudy,150,2013-09-07 04:53:00
1:53 AM,82.0,75.9,82,29.94,10.0,ENE,3.5,-,N/A,,Partly Cloudy,60,2013-09-07 05:53:00
2:53 AM,82.0,75.9,82,29.93,10.0,Calm,Calm,-,N/A,,Partly Cloudy,0,2013-09-07 06:53:00
3:53 AM,82.0,75.0,79,29.91,10.0,NE,4.6,-,N/A,,Partly Cloudy,50,2013-09-07 07:53:00
4:53 AM,82.0,75.0,79,29.92,10.0,ENE,4.6,-,N/A,,Partly Cloudy,60,2013-09-07 08:53:00
5:53 AM,81.0,75.0,82,29.92,10.0,North,3.5,-,N/A,,Scattered Clouds,350,2013-09-07 09:53:00
6:53 AM,79.0,75.0,88,29.94,10.0,North,3.5,-,N/A,,Scattered Clouds,350,2013-09-07 10:53:00
7:24 AM,78.8,73.4,83,29.95,8.0,NNE,11.5,16.1,N/A,Thunderstorm,Thunderstorm,30,2013-09-07 11:24:00
7:53 AM,77.0,72.0,84,29.97,10.0,ENE,3.5,-,0.00,,Mostly Cloudy,70,2013-09-07 11:53:00
8:02 AM,77.0,71.6,83,29.97,10.0,Calm,Calm,-,N/A,Thunderstorm,Thunderstorm,0,2013-09-07 12:02:00
8:53 AM,78.1,73.0,84,29.97,10.0,East,6.9,-,N/A,Thunderstorm,Thunderstorm,100,2013-09-07 12:53:00
9:31 AM,78.8,71.6,78,29.98,10.0,ESE,3.5,-,N/A,,Mostly Cloudy,120,2013-09-07 13:31:00
9:53 AM,78.1,72.0,81,29.98,10.0,SSE,5.8,-,N/A,,Mostly Cloudy,150,2013-09-07 13:53:00
10:53 AM,81.0,73.0,77,29.99,10.0,SSE,4.6,-,N/A,,Scattered Clouds,160,2013-09-07 14:53:00
11:26 AM,82.4,75.2,79,29.99,10.0,Variable,5.8,-,N/A,,Mostly Cloudy,0,2013-09-07 15:26:00
11:53 AM,82.0,75.0,79,29.99,10.0,SE,6.9,-,N/A,,Partly Cloudy,140,2013-09-07 15:53:00
12:53 PM,84.0,73.0,69,29.98,10.0,Calm,Calm,-,N/A,,Partly Cloudy,0,2013-09-07 16:53:00
1:53 PM,84.9,73.0,67,29.97,10.0,ESE,6.9,-,N/A,,Scattered Clouds,110,2013-09-07 17:53:00
2:53 PM,84.9,73.0,67,29.95,10.0,SE,9.2,-,N/A,,Scattered Clouds,140,2013-09-07 18:53:00
3:53 PM,86.0,73.0,65,29.93,10.0,ESE,4.6,-,N/A,,Scattered Clouds,110,2013-09-07 19:53:00
4:53 PM,81.0,73.0,77,29.91,10.0,NNE,10.4,-,N/A,,Scattered Clouds,20,2013-09-07 20:53:00
5:53 PM,81.0,73.9,79,29.91,10.0,North,4.6,-,N/A,,Scattered Clouds,10,2013-09-07 21:53:00
6:53 PM,80.1,73.0,79,29.91,10.0,North,3.5,-,N/A,,Scattered Clouds,10,2013-09-07 22:53:00
7:53 PM,79.0,73.0,82,29.93,10.0,North,5.8,-,N/A,,Scattered Clouds,350,2013-09-07 23:53:00
8:53 PM,78.1,72.0,81,29.94,10.0,North,4.6,-,N/A,,Partly Cloudy,360,2013-09-08 00:53:00
9:53 PM,78.8,71.6,78,29.96,10.0,NNW,5.8,-,N/A,,Partly Cloudy,330,2013-09-08 01:53:00
10:53 PM,77.0,71.6,83,29.95,10.0,NNW,3.5,-,N/A,,Partly Cloudy,340,2013-09-08 02:53:00
11:53 PM,77.0,71.1,82,29.94,10.0,Calm,Calm,-,N/A,,Partly Cloudy,0,2013-09-08 03:53:00